Voltar ao catálogo

STARLINK-6183

AtivoComunicaçõesVLEO
NORAD 56905·PAYLOAD·🇺🇸 United States

Lançado Jun 12, 2023 de Cape Canaveral Space Force Station

Loading…

Próximas Passagens (próximas 24 horas)

TLE

AtualizadoSource: CelesTrak SupGP

Época: Sep 15, 2026, 01:56 UTC

1 56905C 23083AF  26258.08104167 -.00004698  00000+0 -17021-3 0  2581
2 56905  43.0005  80.7341 0001653 266.7228 231.3027 15.27570863    13

Acompanhe STARLINK-6183 em tempo real com AllMySat

Download on the App Store